Time,TemperatureF,DewpointF,PressureIn,WindDirection,WindDirectionDegrees,WindSpeedMPH,WindSpeedGustMPH,Humidity,HourlyPrecipIn,Conditions,Clouds,dailyrainin,SoftwareType,DateUTC
2013-01-10 00:02:00,17.0,15.0,-100.00,SSW,200,0.0,0.0,90,0.00,,,-99.99,,2013-01-10 07:02:00,
2013-01-10 00:11:00,17.0,15.0,-100.00,West,265,0.0,0.0,90,0.00,,,-99.99,,2013-01-10 07:11:00,
2013-01-10 00:22:00,19.0,16.0,-100.00,SW,235,0.0,0.0,91,0.00,,,-99.99,,2013-01-10 07:22:00,
2013-01-10 00:32:00,19.0,17.0,-100.00,ESE,105,0.0,3.0,91,0.00,,,-99.99,,2013-01-10 07:32:00,
2013-01-10 00:42:00,19.0,17.0,-100.00,WSW,245,0.0,5.0,91,0.00,,,-99.99,,2013-01-10 07:42:00,
2013-01-10 00:52:00,18.0,16.0,-100.00,NNE,30,0.0,10.0,90,0.00,,,-99.99,,2013-01-10 07:52:00,
2013-01-10 01:01:00,17.0,14.0,-100.00,WSW,240,0.0,0.0,90,0.00,,,-99.99,,2013-01-10 08:01:00,
2013-01-10 01:11:00,16.0,14.0,-100.00,West,275,0.0,0.0,90,0.00,,,-99.99,,2013-01-10 08:11:00,
2013-01-10 01:21:00,16.0,14.0,-100.00,West,260,0.0,0.0,90,0.00,,,-99.99,,2013-01-10 08:21:00,
2013-01-10 01:32:00,17.0,14.0,-100.00,SSW,205,0.0,0.0,90,0.00,,,-99.99,,2013-01-10 08:32:00,
2013-01-10 01:42:00,17.0,15.0,-100.00,NNE,30,0.0,2.0,90,0.00,,,-99.99,,2013-01-10 08:42:00,
2013-01-10 01:52:00,16.0,14.0,-100.00,WSW,250,0.0,0.0,90,0.00,,,-99.99,,2013-01-10 08:52:00,
2013-01-10 02:02:00,18.0,16.0,-100.00,NNE,15,2.0,11.0,91,0.00,,,-99.99,,2013-01-10 09:02:00,
2013-01-10 02:12:00,20.0,17.0,-100.00,NE,45,1.0,12.0,91,0.00,,,-99.99,,2013-01-10 09:12:00,
2013-01-10 02:22:00,19.0,17.0,-100.00,NE,40,2.0,9.0,90,0.00,,,-99.99,,2013-01-10 09:22:00,
2013-01-10 02:32:00,20.0,17.0,-100.00,NE,55,7.0,12.0,89,0.00,,,-99.99,,2013-01-10 09:32:00,
2013-01-10 02:42:00,20.0,17.0,-100.00,NE,50,2.0,12.0,87,0.00,,,-99.99,,2013-01-10 09:42:00,
2013-01-10 02:52:00,20.0,16.0,-100.00,SW,230,1.0,4.0,85,0.00,,,-99.99,,2013-01-10 09:52:00,
2013-01-10 03:02:00,18.0,15.0,-100.00,WSW,255,0.0,8.0,85,0.00,,,-99.99,,2013-01-10 10:02:00,
2013-01-10 03:11:00,20.0,16.0,-100.00,NE,55,6.0,12.0,85,0.00,,,-99.99,,2013-01-10 10:11:00,
2013-01-10 03:22:00,19.0,15.0,-100.00,NNE,15,0.0,11.0,85,0.00,,,-99.99,,2013-01-10 10:22:00,
2013-01-10 03:32:00,18.0,14.0,-100.00,SW,235,0.0,0.0,84,0.00,,,-99.99,,2013-01-10 10:32:00,
2013-01-10 03:42:00,17.0,13.0,-100.00,WSW,240,0.0,0.0,84,0.00,,,-99.99,,2013-01-10 10:42:00,
2013-01-10 03:52:00,16.0,12.0,-100.00,SE,135,0.0,0.0,84,0.00,,,-99.99,,2013-01-10 10:52:00,
2013-01-10 04:02:00,16.0,12.0,-100.00,WSW,250,0.0,0.0,85,0.00,,,-99.99,,2013-01-10 11:02:00,
2013-01-10 04:12:00,15.0,12.0,-100.00,ESE,105,0.0,0.0,85,0.00,,,-99.99,,2013-01-10 11:12:00,
2013-01-10 04:22:00,17.0,13.0,-100.00,NNE,25,0.0,4.0,86,0.00,,,-99.99,,2013-01-10 11:22:00,
2013-01-10 04:32:00,18.0,15.0,-100.00,ENE,70,3.0,10.0,87,0.00,,,-99.99,,2013-01-10 11:32:00,
2013-01-10 04:42:00,18.0,15.0,-100.00,NE,50,6.0,11.0,87,0.00,,,-99.99,,2013-01-10 11:42:00,
2013-01-10 04:52:00,18.0,15.0,-100.00,NNE,30,3.0,11.0,86,0.00,,,-99.99,,2013-01-10 11:52:00,
2013-01-10 05:02:00,18.0,14.0,-100.00,NE,45,4.0,11.0,85,0.00,,,-99.99,,2013-01-10 12:02:00,
2013-01-10 05:12:00,18.0,14.0,-100.00,NE,55,6.0,11.0,84,0.00,,,-99.99,,2013-01-10 12:12:00,
2013-01-10 05:22:00,19.0,15.0,-100.00,ENE,65,7.0,15.0,83,0.00,,,-99.99,,2013-01-10 12:22:00,
2013-01-10 05:32:00,19.0,15.0,-100.00,NE,50,6.0,14.0,82,0.00,,,-99.99,,2013-01-10 12:32:00,
2013-01-10 05:42:00,20.0,15.0,-100.00,ENE,75,7.0,13.0,81,0.00,,,-99.99,,2013-01-10 12:42:00,
2013-01-10 05:52:00,20.0,15.0,-100.00,NE,55,7.0,14.0,79,0.00,,,-99.99,,2013-01-10 12:52:00,
2013-01-10 06:02:00,19.0,14.0,-100.00,ENE,75,11.0,17.0,79,0.00,,,-99.99,,2013-01-10 13:02:00,
2013-01-10 06:11:00,19.0,14.0,-100.00,NE,55,6.0,17.0,78,0.00,,,-99.99,,2013-01-10 13:11:00,
2013-01-10 06:22:00,19.0,14.0,-100.00,ENE,60,6.0,16.0,78,0.00,,,-99.99,,2013-01-10 13:22:00,
2013-01-10 06:32:00,19.0,14.0,-100.00,ENE,60,7.0,15.0,78,0.00,,,-99.99,,2013-01-10 13:32:00,
2013-01-10 06:42:00,20.0,14.0,-100.00,NE,50,4.0,20.0,78,0.00,,,-99.99,,2013-01-10 13:42:00,
2013-01-10 06:52:00,20.0,14.0,-100.00,ENE,70,7.0,13.0,77,0.00,,,-99.99,,2013-01-10 13:52:00,
2013-01-10 07:02:00,20.0,14.0,-100.00,ENE,65,7.0,12.0,77,0.00,,,-99.99,,2013-01-10 14:02:00,
2013-01-10 07:12:00,20.0,14.0,-100.00,ENE,60,6.0,14.0,77,0.00,,,-99.99,,2013-01-10 14:12:00,
2013-01-10 07:22:00,20.0,14.0,-100.00,East,85,7.0,17.0,76,0.00,,,-99.99,,2013-01-10 14:22:00,
2013-01-10 07:32:00,20.0,14.0,-100.00,ENE,70,2.0,14.0,76,0.00,,,-99.99,,2013-01-10 14:32:00,
2013-01-10 07:43:00,20.0,14.0,-100.00,ENE,70,8.0,18.0,76,0.00,,,-99.99,,2013-01-10 14:43:00,
2013-01-10 07:52:00,20.0,14.0,-100.00,NE,50,4.0,16.0,76,0.00,,,-99.99,,2013-01-10 14:52:00,
2013-01-10 08:02:00,20.0,14.0,-100.00,NNE,30,7.0,16.0,76,0.00,,,-99.99,,2013-01-10 15:02:00,
2013-01-10 08:12:00,20.0,14.0,-100.00,NE,40,9.0,16.0,76,0.00,,,-99.99,,2013-01-10 15:12:00,
2013-01-10 08:22:00,20.0,14.0,-100.00,NE,40,6.0,18.0,75,0.00,,,-99.99,,2013-01-10 15:22:00,
2013-01-10 08:32:00,20.0,14.0,-100.00,NE,45,11.0,17.0,75,0.00,,,-99.99,,2013-01-10 15:32:00,
2013-01-10 08:43:00,20.0,14.0,-100.00,NE,45,6.0,14.0,75,0.00,,,-99.99,,2013-01-10 15:43:00,
2013-01-10 08:52:00,20.0,14.0,-100.00,East,80,13.0,19.0,74,0.00,,,-99.99,,2013-01-10 15:52:00,
2013-01-10 09:02:00,21.0,14.0,-100.00,East,85,11.0,19.0,74,0.00,,,-99.99,,2013-01-10 16:02:00,
2013-01-10 09:12:00,21.0,14.0,-100.00,ENE,60,12.0,18.0,73,0.00,,,-99.99,,2013-01-10 16:12:00,
2013-01-10 09:22:00,21.0,14.0,-100.00,ENE,75,14.0,21.0,73,0.00,,,-99.99,,2013-01-10 16:22:00,
2013-01-10 09:32:00,22.0,14.0,-100.00,NE,55,13.0,24.0,72,0.00,,,-99.99,,2013-01-10 16:32:00,
2013-01-10 09:42:00,22.0,14.0,-100.00,NE,55,12.0,21.0,71,0.00,,,-99.99,,2013-01-10 16:42:00,
2013-01-10 09:52:00,22.0,14.0,-100.00,ENE,60,14.0,24.0,71,0.00,,,-99.99,,2013-01-10 16:52:00,
2013-01-10 10:02:00,23.0,15.0,-100.00,East,85,13.0,21.0,70,0.00,,,-99.99,,2013-01-10 17:02:00,
2013-01-10 10:12:00,23.0,15.0,-100.00,East,85,13.0,23.0,69,0.00,,,-99.99,,2013-01-10 17:12:00,
2013-01-10 10:22:00,24.0,15.0,-100.00,ENE,60,9.0,22.0,68,0.00,,,-99.99,,2013-01-10 17:22:00,
2013-01-10 10:33:00,26.0,16.0,-100.00,NE,40,9.0,21.0,66,0.00,,,-99.99,,2013-01-10 17:33:00,
2013-01-10 10:42:00,26.0,16.0,-100.00,ENE,65,7.0,21.0,65,0.00,,,-99.99,,2013-01-10 17:42:00,
2013-01-10 10:52:00,27.0,16.0,-100.00,NE,55,11.0,19.0,64,0.00,,,-99.99,,2013-01-10 17:52:00,
2013-01-10 11:02:00,27.0,16.0,-100.00,ENE,75,12.0,22.0,63,0.00,,,-99.99,,2013-01-10 18:02:00,
2013-01-10 11:12:00,27.0,16.0,-100.00,East,90,14.0,22.0,62,0.00,,,-99.99,,2013-01-10 18:12:00,
2013-01-10 11:22:00,27.0,16.0,-100.00,East,85,13.0,22.0,62,0.00,,,-99.99,,2013-01-10 18:22:00,
2013-01-10 11:32:00,28.0,16.0,-100.00,East,85,16.0,21.0,61,0.00,,,-99.99,,2013-01-10 18:32:00,
2013-01-10 11:43:00,28.0,16.0,-100.00,East,85,13.0,22.0,60,0.00,,,-99.99,,2013-01-10 18:43:00,
2013-01-10 11:52:00,29.0,17.0,-100.00,East,85,7.0,17.0,59,0.00,,,-99.99,,2013-01-10 18:52:00,
2013-01-10 12:02:00,29.0,17.0,-100.00,East,100,7.0,16.0,58,0.00,,,-99.99,,2013-01-10 19:02:00,
2013-01-10 12:12:00,31.0,17.0,-100.00,ENE,75,4.0,16.0,57,0.00,,,-99.99,,2013-01-10 19:12:00,
2013-01-10 12:22:00,31.0,17.0,-100.00,East,80,6.0,9.0,56,0.00,,,-99.99,,2013-01-10 19:22:00,
2013-01-10 12:32:00,31.0,17.0,-100.00,ENE,70,7.0,14.0,56,0.00,,,-99.99,,2013-01-10 19:32:00,
2013-01-10 12:42:00,31.0,17.0,-100.00,ENE,70,7.0,14.0,56,0.00,,,-99.99,,2013-01-10 19:42:00,
2013-01-10 12:52:00,31.0,17.0,-100.00,ENE,60,9.0,15.0,55,0.00,,,-99.99,,2013-01-10 19:52:00,
2013-01-10 13:02:00,31.0,17.0,-100.00,ENE,70,9.0,17.0,55,0.00,,,-99.99,,2013-01-10 20:02:00,
2013-01-10 13:12:00,31.0,17.0,-100.00,ENE,65,9.0,17.0,54,0.00,,,-99.99,,2013-01-10 20:12:00,
2013-01-10 13:22:00,31.0,17.0,-100.00,ENE,70,12.0,17.0,54,0.00,,,-99.99,,2013-01-10 20:22:00,
2013-01-10 13:32:00,32.0,17.0,-100.00,ENE,75,9.0,16.0,54,0.00,,,-99.99,,2013-01-10 20:32:00,
2013-01-10 13:42:00,32.0,18.0,-100.00,ENE,65,9.0,14.0,54,0.00,,,-99.99,,2013-01-10 20:42:00,
2013-01-10 13:52:00,32.0,17.0,-100.00,ENE,75,9.0,15.0,53,0.00,,,-99.99,,2013-01-10 20:52:00,
2013-01-10 14:02:00,33.0,18.0,-100.00,NE,55,5.0,11.0,53,0.00,,,-99.99,,2013-01-10 21:02:00,
2013-01-10 14:12:00,33.0,18.0,-100.00,East,85,5.0,11.0,53,0.00,,,-99.99,,2013-01-10 21:12:00,
2013-01-10 14:22:00,33.0,18.0,-100.00,East,80,4.0,9.0,53,0.00,,,-99.99,,2013-01-10 21:22:00,
2013-01-10 14:32:00,33.0,18.0,-100.00,East,90,8.0,11.0,53,0.00,,,-99.99,,2013-01-10 21:32:00,
2013-01-10 14:42:00,33.0,18.0,-100.00,ENE,60,3.0,11.0,53,0.00,,,-99.99,,2013-01-10 21:42:00,
2013-01-10 14:52:00,33.0,18.0,-100.00,NE,55,2.0,12.0,53,0.00,,,-99.99,,2013-01-10 21:52:00,
2013-01-10 15:02:00,33.0,18.0,-100.00,ENE,75,4.0,11.0,53,0.00,,,-99.99,,2013-01-10 22:02:00,
2013-01-10 15:12:00,33.0,18.0,-100.00,ENE,75,4.0,14.0,53,0.00,,,-99.99,,2013-01-10 22:12:00,
2013-01-10 15:22:00,33.0,18.0,-100.00,NE,50,0.0,7.0,54,0.00,,,-99.99,,2013-01-10 22:22:00,
2013-01-10 15:32:00,33.0,18.0,-100.00,NE,55,0.0,4.0,54,0.00,,,-99.99,,2013-01-10 22:32:00,
2013-01-10 15:42:00,33.0,19.0,-100.00,NE,45,0.0,0.0,54,0.00,,,-99.99,,2013-01-10 22:42:00,
2013-01-10 16:02:00,33.0,18.0,-100.00,NNE,30,0.0,6.0,55,0.00,,,-99.99,,2013-01-10 23:02:00,
2013-01-10 16:12:00,33.0,19.0,-100.00,NE,45,0.0,0.0,56,0.00,,,-99.99,,2013-01-10 23:12:00,
2013-01-10 16:22:00,33.0,19.0,-100.00,ENE,75,0.0,0.0,57,0.00,,,-99.99,,2013-01-10 23:22:00,
2013-01-10 16:32:00,33.0,19.0,-100.00,East,80,0.0,0.0,57,0.00,,,-99.99,,2013-01-10 23:32:00,
2013-01-10 16:42:00,33.0,20.0,-100.00,SW,215,0.0,0.0,57,0.00,,,-99.99,,2013-01-10 23:42:00,
2013-01-10 16:52:00,33.0,20.0,-100.00,East,80,0.0,1.0,57,0.00,,,-99.99,,2013-01-10 23:52:00,
2013-01-10 17:02:00,33.0,20.0,-100.00,ENE,75,0.0,1.0,58,0.00,,,-99.99,,2013-01-11 00:02:00,
2013-01-10 17:12:00,32.0,20.0,-100.00,North,0,0.0,0.0,59,0.00,,,-99.99,,2013-01-11 00:12:00,
2013-01-10 17:22:00,32.0,20.0,-100.00,ENE,70,0.0,3.0,60,0.00,,,-99.99,,2013-01-11 00:22:00,
2013-01-10 17:32:00,33.0,20.0,-100.00,ENE,60,0.0,7.0,60,0.00,,,-99.99,,2013-01-11 00:32:00,
2013-01-10 17:42:00,32.0,20.0,-100.00,ENE,60,0.0,4.0,60,0.00,,,-99.99,,2013-01-11 00:42:00,
2013-01-10 17:52:00,32.0,20.0,-100.00,ESE,115,0.0,0.0,60,0.00,,,-99.99,,2013-01-11 00:52:00,
2013-01-10 18:02:00,33.0,21.0,-100.00,East,80,5.0,10.0,61,0.00,,,-99.99,,2013-01-11 01:02:00,
2013-01-10 18:12:00,33.0,21.0,-100.00,ENE,70,0.0,8.0,60,0.00,,,-99.99,,2013-01-11 01:12:00,
2013-01-10 18:22:00,33.0,21.0,-100.00,ENE,60,0.0,9.0,60,0.00,,,-99.99,,2013-01-11 01:22:00,
2013-01-10 18:32:00,33.0,21.0,-100.00,ENE,60,0.0,0.0,60,0.00,,,-99.99,,2013-01-11 01:32:00,
2013-01-10 18:42:00,33.0,21.0,-100.00,ENE,70,0.0,1.0,61,0.00,,,-99.99,,2013-01-11 01:42:00,
2013-01-10 18:52:00,33.0,22.0,-100.00,NE,35,4.0,9.0,62,0.00,,,-99.99,,2013-01-11 01:52:00,
2013-01-10 19:02:00,37.0,25.0,-100.00,NE,40,0.0,7.0,62,0.00,,,-99.99,,2013-01-11 02:02:00,
2013-01-10 19:12:00,40.0,28.0,-100.00,East,90,4.0,11.0,59,0.00,,,-99.99,,2013-01-11 02:12:00,
2013-01-10 19:22:00,42.0,28.0,-100.00,ENE,70,0.0,17.0,55,0.00,,,-99.99,,2013-01-11 02:22:00,
2013-01-10 19:32:00,41.0,26.0,-100.00,NNE,30,1.0,6.0,54,0.00,,,-99.99,,2013-01-11 02:32:00,
2013-01-10 19:42:00,38.0,24.0,-100.00,ENE,60,0.0,6.0,55,0.00,,,-99.99,,2013-01-11 02:42:00,
2013-01-10 19:52:00,37.0,23.0,-100.00,East,80,0.0,7.0,57,0.00,,,-99.99,,2013-01-11 02:52:00,
2013-01-10 20:02:00,36.0,23.0,-100.00,ENE,60,0.0,6.0,58,0.00,,,-99.99,,2013-01-11 03:02:00,
2013-01-10 20:12:00,36.0,23.0,-100.00,ENE,60,0.0,7.0,59,0.00,,,-99.99,,2013-01-11 03:12:00,
2013-01-10 20:22:00,36.0,23.0,-100.00,ENE,70,0.0,7.0,59,0.00,,,-99.99,,2013-01-11 03:22:00,
2013-01-10 20:32:00,36.0,24.0,-100.00,NE,40,0.0,4.0,59,0.00,,,-99.99,,2013-01-11 03:32:00,
2013-01-10 20:42:00,37.0,24.0,-100.00,NE,50,1.0,6.0,60,0.00,,,-99.99,,2013-01-11 03:42:00,
2013-01-10 20:52:00,37.0,25.0,-100.00,NNE,25,0.0,10.0,62,0.00,,,-99.99,,2013-01-11 03:52:00,
2013-01-10 21:02:00,37.0,26.0,-100.00,East,85,1.0,9.0,62,0.00,,,-99.99,,2013-01-11 04:02:00,
2013-01-10 21:12:00,38.0,26.0,-100.00,NE,45,2.0,9.0,62,0.00,,,-99.99,,2013-01-11 04:12:00,
2013-01-10 21:22:00,38.0,26.0,-100.00,East,90,2.0,7.0,63,0.00,,,-99.99,,2013-01-11 04:22:00,
2013-01-10 21:32:00,37.0,26.0,-100.00,ENE,65,0.0,6.0,63,0.00,,,-99.99,,2013-01-11 04:32:00,
2013-01-10 21:42:00,36.0,26.0,-100.00,ENE,60,4.0,9.0,64,0.00,,,-99.99,,2013-01-11 04:42:00,
2013-01-10 21:52:00,36.0,26.0,-100.00,ENE,70,4.0,7.0,65,0.00,,,-99.99,,2013-01-11 04:52:00,
2013-01-10 22:03:00,35.0,25.0,-100.00,NE,40,2.0,7.0,65,0.00,,,-99.99,,2013-01-11 05:03:00,
2013-01-10 22:12:00,35.0,25.0,-100.00,ENE,70,4.0,9.0,66,0.00,,,-99.99,,2013-01-11 05:12:00,
2013-01-10 22:22:00,35.0,26.0,-100.00,ENE,75,4.0,9.0,66,0.00,,,-99.99,,2013-01-11 05:22:00,
2013-01-10 22:33:00,35.0,25.0,-100.00,ENE,60,0.0,7.0,66,0.00,,,-99.99,,2013-01-11 05:33:00,
2013-01-10 22:42:00,36.0,26.0,-100.00,NE,50,1.0,7.0,66,0.00,,,-99.99,,2013-01-11 05:42:00,
2013-01-10 22:52:00,35.0,25.0,-100.00,NE,35,1.0,6.0,65,0.00,,,-99.99,,2013-01-11 05:52:00,
2013-01-10 23:02:00,37.0,25.0,-100.00,North,0,0.0,11.0,63,0.00,,,-99.99,,2013-01-11 06:02:00,
2013-01-10 23:11:00,39.0,26.0,-100.00,ESE,105,2.0,14.0,58,0.00,,,-99.99,,2013-01-11 06:11:00,
2013-01-10 23:22:00,41.0,25.0,-100.00,East,80,0.0,9.0,52,0.00,,,-99.99,,2013-01-11 06:22:00,
2013-01-10 23:32:00,40.0,24.0,-100.00,North,5,0.0,7.0,50,0.00,,,-99.99,,2013-01-11 06:32:00,
2013-01-10 23:42:00,38.0,22.0,-100.00,North,350,0.0,0.0,52,0.00,,,-99.99,,2013-01-11 06:42:00,
2013-01-10 23:52:00,36.0,22.0,-100.00,NE,45,0.0,0.0,56,0.00,,,-99.99,,2013-01-11 06:52:00,